I52 Steward Observatory, Mt. Lemmon Station.  Observer A. Serrano.  Measurers
    E. J. Christensen, D. Fay, J. B. Fazekas, D. C. Fuls, A. R. Gibbs, A. D.
    Grauer, H. Groeller, J. K. Hogan, R. A. Kowalski, S. M. Larson, G. J.
    Leonard, D. Rankin, R. L. Seaman, A. Serrano, F. C. Shelly, K. W.
    Wierzchos.  1.0-m prime focus + CCD.
I93 St Pardon de Conques.  Observer F. Losse.  0.40-m f/3.7 reflector + CMO.
K38 M57 Observatory, Saltrio.  Observer G. Baj.  0.35-m f/5.3 Ritchey-Chretien
    + CCD.
K63 G. Pascoli Observatory, Castelvecchio Pascoli.  Observer R. Bacci.  0.41-m
    f/3.75 0.41m f/3.2  Newton + CCD.
K74 Muensterschwarzach Observatory, Schwarzach.  Observer C. Gerhard.  0.30-m
    f/3.75 reflector + CMO.
L01 Visnjan Observatory, Tican.  Observers K. Korlevic, L. Poropat, G.
    Gervina.  Measurer K. Korlevic.  1.0-m f/2.9 reflector + CCD.
L18 QOS Observatory, Zalistsi.  Observers S. V. Rischenko, B. O. Basiev.
    Measurer A. M. Kozhukhov.  0.50-m f/3.8 reflector + CCD.
L65 Bredenkamp Observatory, Bremen.  Observer H. Duin.  0.23-m f/6.3 reflector
    + CMO.
M38 Harsona Observatory, Nyiregyhaza.  Observer T. Elek.  0.20-m f/3 reflector
    + CCD.
M45 Starhopper Observatory, Sfantu Gheorghe.  Observer F. Ursache.  0.41-m
    f/7.5 reflector + CMO.
Orbital elements:
2023 SA7                                                 Earth MOID = 0.0403 AU
Epoch 2023 Sept. 13.0 TT = JDT 2460200.5                Bell                    
M  16.84852              (2000.0)            P               Q                  
n   0.43896645     Peri.   96.46808     +0.30412851     +0.95214478             
a   1.7146750      Node   191.37883     -0.92360226     +0.28688433             
e   0.5417147      Incl.    8.87334     -0.23337677     +0.10544046             
P   2.25           H   23.97          G   0.15           U   8                  
Residuals in seconds of arc
230925 G96  0.1+  0.0     230925 958  0.2+  0.5-    230925 K38  0.3+  0.8-
230925 G96  0.2-  0.5+    230925 L65  0.8+  0.7-    230925 K38  0.3-  0.0
230925 G96 (2.0-  0.7+)   230925 C40  1.0-  1.2+    230926 G96  0.3-  0.1+
230925 I52  0.0   0.0     230925 I93  0.2+  0.3+    230926 G96  0.7-  0.9+
230925 I52  0.0   0.0     230925 204  0.3+  0.2-    230926 H21  0.4+  0.1+
230925 I52  0.1+  0.2+    230925 958  0.5-  0.6-    230926 H21  0.5+  0.3+
230925 I52  0.1+  0.0     230925 C40  0.0   0.1-    230926 H21  0.5+  0.2+
230925 H01  0.1+  0.0     230925 204  0.5+  0.2-    230926 G96  0.1+  0.2+
230925 H01  0.1+  0.0     230925 203  0.1-  0.2+    230926 H21  0.6+  0.2+
230925 H01  0.3+  0.1-    230925 106  0.1+  0.3-    230926 H21  0.3+  0.3+
230925 H01  0.1+  0.0     230925 958  1.1-  0.1-    230926 G96  0.6-  0.6+
230925 L18  0.9-  0.2+    230925 104  0.6-  0.5+    230926 654  0.0   0.0
230925 L18  0.5-  0.1+    230925 106  0.7+  0.4-    230926 654  0.0   0.0
230925 L18  0.5-  0.7-    230925 L65  0.3-  0.4-    230926 106  0.4+  0.3-
230925 595  0.0   0.3+    230925 106  0.2-  0.2+    230926 106  0.2+  0.4-
230925 G02  0.8-  0.1+    230925 106  0.0   0.3-    230926 M38  0.3+  0.6+
230925 G02  0.3-  0.1-    230925 203  0.1+  0.4-    230926 106  0.2-  0.4+
230925 595  0.5-  0.4+    230925 L01  0.5-  0.1-    230926 106  0.8-  0.1+
230925 K63  0.9+  0.3+    230925 L01  0.4-  0.0     230926 K74  0.0   0.1-
230925 K63  0.3+  0.6+    230925 203  0.1+  0.0     230926 M38  3.0+  0.5+
230925 K63  0.2+  0.7-    230925 L01  0.1+  0.1+    230926 K74  0.1-  0.2-
230925 G02  0.1-  0.1-    230925 L01  0.2-  0.1+    230926 M45  0.4-  0.1-
230925 595  0.4+  0.2-    230925 L01  0.1-  0.1-    230926 M45  0.3+  0.8-
230925 L65  0.6+  0.5-    230925 C40  0.2+  0.5-    230926 K74  0.0   0.1+
230925 104  0.0   0.7-    230925 C40  0.7+  0.1-    230926 M45  0.4+  0.5+
230925 I93  0.3+  0.2+    230925 C40  0.7-  1.9-    230926 598  0.0   0.1-
230925 C40  0.3+  0.8+    230925 C95  0.4+  0.5-    230926 598  0.0   0.1+
230925 I93  0.2-  0.1+    230925 C95  0.3+  0.5+    230926 598  0.2+  0.1+
230925 204  0.3+  0.1-    230925 C95  0.5+  0.1+    230926 598  0.0   0.2-
Ephemeris:
2023 SA7                 a,e,i = 1.71, 0.54, 9                   q = 0.7858
Date    TT    R. A. (2000) Decl.     Delta      r    Elong.  Phase     V
2023 08 27    13 09 29.8 +17 28 07   0.2470  0.8418    41.6   127.2    26.0
...
2023 09 11    14 07 45.0 +25 33 45   0.1111  0.9336    46.3   128.8    24.6
...
2023 09 19    16 37 00.0 +38 01 25   0.05363 0.9931    75.9   101.1    21.3
...
2023 09 25    21 29 24.0 +24 32 03   0.05171 1.0406   135.4    42.6    19.3
2023 09 26    21 58 42.4 +20 07 19   0.05674 1.0486   142.9    35.2    19.3
2023 09 27    22 21 38.9 +16 15 45   0.06273 1.0568   149.0    29.3    19.4
...
2023 10 03    23 30 54.3 +03 03 17   0.1091  1.1063   164.3    14.2    20.2
...
2023 10 11    00 02 34.4 -03 01 25   0.1825  1.1735   162.0    15.2    21.5
...
2023 10 26    00 26 01.6 -05 58 50   0.3389  1.3002   150.6    22.1    23.3
M. P. C. Staff               (C) Copyright 2023 MPC           M.P.E.C. 2023-S230
    
    
More information about the Iaude
mailing list